[[{"header":{"parameterUnit":"m.s-1","parameterCategory":1,"la1":30.2991,"la2":30.254,"lo1":-89.0895,"lo2":-89.0444,"dy":0.0017,"dx":0.0017,"nx":28,"ny":28,"refTime":"2026-03-02T09:00:00:Z","depth":0,"parameterNumber":2,"parameterNumberName":"U-component_of_WINDS"},"data":[0,0,0,0,0,0,0,0,0,0,0,0,0,0,0,0,0,0,0,0,0,0,0,0,0,0,0,0,0,0,0,0,0,0,0,0,0,0,0,0,0,0,0,0,0,0,0,0,0,0,0,0,0,0,0,0,0,0,-2.8044,-2.8044,0,-2.8002,-2.8001,-2.8001,-2.7928,-2.7926,-2.7925,-2.7923,-2.788,-2.788,-2.7881,0,0,0,0,0,0,0,0,0,0,0,0,0,-2.8065,-2.8065,-2.8044,-2.8044,-2.8043,-2.8002,-2.8001,-2.8,-2.7928,-2.7926,-2.7924,-2.7923,-2.788,-2.788,-2.7881,0,0,0,0,0,0,0,0,0,0,0,0,0,-2.8043,-2.8065,-2.8044,-2.8002,-2.7998,-2.8002,-2.8001,-2.8,-2.7928,-2.7926,-2.7924,-2.7922,-2.788,-2.788,-2.7881,-2.7923,0,0,-2.7881,-2.7881,0,0,0,0,0,0,0,0,-2.8044,-2.8042,-2.8009,-2.8005,-2.8,-2.7968,-2.7992,-2.7974,-2.7929,-2.7955,-2.7923,-2.7921,-2.7911,-2.7909,-2.7905,-2.7921,-2.7919,-2.7881,-2.7881,-2.7881,-2.7881,0,0,0,0,0,0,0,-2.8046,-2.8043,-2.8027,-2.8008,-2.8003,-2.7986,-2.798,-2.7989,-2.7945,-2.7952,-2.7947,-2.7943,-2.7908,-2.7905,-2.7904,-2.7918,-2.7881,-2.7881,-2.7882,-2.7882,-2.7968,-2.797,0,0,0,0,0,0,-2.8053,-2.8045,-2.8029,-2.8026,-2.8017,-2.7987,-2.7981,-2.798,-2.7945,-2.7937,-2.7944,-2.7939,-2.7906,-2.7903,-2.7902,-2.7949,-2.7881,-2.7882,-2.7882,-2.7966,-2.7968,-2.7971,0,0,0,0,0,0,-2.8054,-2.8052,-2.803,-2.8034,-2.803,-2.7989,-2.7989,-2.798,-2.7977,-2.7939,-2.7931,-2.7949,-2.7904,-2.7902,-2.7918,-2.7947,-2.7882,-2.7882,-2.7963,-2.7967,-2.797,-2.8044,0,0,0,0,0,0,-2.8055,-2.8053,-2.8068,-2.8035,-2.803,-2.8047,-2.799,-2.7981,-2.7977,-2.797,-2.7941,-2.7934,-2.7902,-2.7919,-2.7919,-2.7946,-2.7882,-2.796,-2.7965,-2.7969,-2.8039,-2.805,-2.8059,0,0,0,0,0,-2.8056,-2.8091,-2.8069,-2.8068,-2.8048,-2.8049,-2.8046,-2.8009,-2.798,-2.7995,-2.7971,-2.7935,-2.7944,-2.7921,-2.792,-2.7948,-2.7958,-2.7964,-2.7968,-2.8035,-2.8048,-2.8059,0,0,0,0,0,0,-2.8128,-2.8085,-2.8061,-2.8086,-2.8072,-2.8037,-2.8054,-2.8024,-2.8017,-2.8011,-2.7965,-2.7959,-2.7982,-2.7967,-2.7942,-2.7988,-2.7946,-2.7951,-2.7996,-2.8008,-2.8018,-2.8021,-2.7882,0,0,0,0,0,-2.8146,-2.815,-2.8114,-2.8139,-2.8133,-2.8096,-2.8095,-2.8067,-2.8051,-2.8044,-2.8021,-2.8006,-2.8006,-2.8007,-2.8004,-2.8037,-2.803,-2.8056,-2.8066,-2.8074,-2.8079,-2.8096,-2.8108,-2.7987,-2.7987,-2.7987,0,0,-2.8185,-2.8163,-2.8168,-2.8153,-2.8139,-2.8145,-2.8091,-2.8099,-2.8103,-2.8045,-2.8059,-2.8043,-2.8024,-2.8049,-2.8059,-2.8037,-2.8111,-2.8081,-2.8088,-2.8087,-2.8103,-2.8114,-2.8124,-2.799,-2.799,-2.7989,0,0,-2.8258,-2.8242,-2.8261,-2.8249,-2.8228,-2.8203,-2.8208,-2.8178,-2.8164,-2.8178,-2.8136,-2.8141,-2.8141,-2.8129,-2.8123,-2.8195,-2.8162,-2.8196,-2.8247,-2.8264,-2.8274,-2.8282,-2.8308,-2.8318,-2.8201,-2.8201,-2.8201,0,-2.8308,-2.8315,-2.8275,-2.8287,-2.8282,-2.8231,-2.8251,-2.8241,-2.8221,-2.8219,-2.8195,-2.8195,-2.8179,-2.8201,-2.8219,-2.8216,-2.8221,-2.8198,-2.8276,-2.8284,-2.8291,-2.8315,-2.8325,-2.8205,-2.8205,-2.8204,-2.8204,0,-2.8378,-2.8384,-2.8403,-2.8385,-2.8382,-2.8398,-2.8362,-2.8364,-2.8338,-2.8316,-2.8332,-2.8311,-2.8304,-2.8308,-2.8282,-2.8327,-2.8314,-2.8284,-2.824,-2.8307,-2.8329,-2.8338,-2.8211,-2.821,-2.8209,-2.8208,0,0,-2.8493,-2.8454,-2.8462,-2.8454,-2.8428,-2.8432,-2.8447,-2.844,-2.8443,-2.8432,-2.8443,-2.8446,-2.8418,-2.8412,-2.8385,-2.84,-2.8459,-2.8368,-2.8367,-2.8385,-2.8508,-2.8531,-2.8542,-2.8438,-2.844,-2.8441,-2.851,0,-2.856,-2.8581,-2.8547,-2.8577,-2.8582,-2.8536,-2.8548,-2.8535,-2.8516,-2.8518,-2.8496,-2.8499,-2.8462,-2.8458,-2.8471,-2.8449,-2.8483,-2.8444,-2.8448,-2.8449,-2.8453,-2.8553,-2.8577,-2.8643,-2.8518,-2.852,-2.8521,0,-2.864,-2.8633,-2.8664,-2.8638,-2.8639,-2.8651,-2.8643,-2.8645,-2.863,-2.8615,-2.8609,-2.8578,-2.8591,-2.8551,-2.8569,-2.8543,-2.8543,-2.8533,-2.8535,-2.8533,-2.8488,-2.8554,-2.8663,-2.8673,-2.8534,-2.8533,-2.8532,0,-2.872,-2.8719,-2.8737,-2.8731,-2.8702,-2.8712,-2.87,-2.8682,-2.8681,-2.8675,-2.8674,-2.8669,-2.8667,-2.8664,-2.8633,-2.8606,-2.8656,-2.8612,-2.8644,-2.8645,-2.8654,-2.8654,-2.8765,-2.8657,-2.8657,-2.8656,-2.8656,0,-2.8798,-2.8818,-2.8773,-2.8784,-2.8806,-2.8768,-2.8791,-2.8774,-2.876,-2.8768,-2.8728,-2.8736,-2.8694,-2.8699,-2.8675,-2.8694,-2.8693,-2.8682,-2.8675,-2.8685,-2.8686,-2.8683,-2.8677,-2.8659,-2.8658,-2.8658,-2.8657,0,-2.889,-2.886,-2.8877,-2.8849,-2.8842,-2.886,-2.8836,-2.8845,-2.8824,-2.8835,-2.8835,-2.8803,-2.8806,-2.8775,-2.8772,-2.8756,-2.8786,-2.8772,-2.8791,-2.8786,-2.8819,-2.8817,-2.8931,-2.8944,-2.8829,-2.883,-2.8831,0,-2.8941,-2.8955,-2.8929,-2.8932,-2.8922,-2.8926,-2.8925,-2.889,-2.889,-2.8875,-2.8887,-2.8887,-2.8885,-2.8892,-2.8869,-2.8867,-2.8852,-2.8892,-2.8851,-2.8861,-2.8852,-2.8851,-2.8852,-2.89,-2.8902,-2.8903,-2.8904,0,-2.9034,-2.9019,-2.9019,-2.9014,-2.9014,-2.9009,-2.9001,-2.9005,-2.8967,-2.897,-2.8972,-2.8971,-2.8969,-2.897,-2.8964,-2.8953,-2.8922,-2.8917,-2.8924,-2.8934,-2.8944,-2.8939,-2.8814,-2.8914,-2.8913,-2.8912,-2.8912,-2.8911,-2.9106,-2.9118,-2.9102,-2.9103,-2.9094,-2.9088,-2.9096,-2.9077,-2.9078,-2.9073,-2.9053,-2.906,-2.9046,-2.9035,-2.9027,-2.9032,-2.9013,-2.9023,-2.9026,-2.9028,-2.9034,-2.8945,-2.9031,-2.9031,-2.9031,-2.903,-2.903,0,-2.9197,-2.9185,-2.9187,-2.9178,-2.918,-2.9152,-2.9142,-2.9145,-2.9152,-2.9142,-2.9141,-2.9145,-2.9147,-2.9124,-2.9123,-2.9132,-2.9118,-2.9132,-2.9131,-2.9129,-2.9052,-2.9046,-2.9144,-2.9144,-2.9144,-2.9144,-2.9144,-2.9144,-2.9245,-2.9263,-2.9246,-2.926,-2.9248,-2.9254,-2.9251,-2.9246,-2.9238,-2.9244,-2.9245,-2.9231,-2.9216,-2.9214,-2.9214,-2.9207,-2.9209,-2.9228,-2.9217,-2.9145,-2.9134,-2.9124,-2.9117,-2.9229,-2.9229,-2.9293,-2.9294,-2.9294]},{"header":{"parameterUnit":"m.s-1","parameterCategory":1,"la1":30.2991,"la2":30.254,"lo1":-89.0895,"lo2":-89.0444,"dy":0.0017,"dx":0.0017,"nx":28,"ny":28,"refTime":"2026-03-02T09:00:00:Z","depth":0,"parameterNumber":3,"parameterNumberName":"V-component_of_WINDS"},"data":[0,0,0,0,0,0,0,0,0,0,0,0,0,0,0,0,0,0,0,0,0,0,0,0,0,0,0,0,0,0,0,0,0,0,0,0,0,0,0,0,0,0,0,0,0,0,0,0,0,0,0,0,0,0,0,0,0,0,1.2422,1.2421,0,1.2401,1.2401,1.2401,1.2398,1.2398,1.2398,1.2399,1.2371,1.237,1.2369,0,0,0,0,0,0,0,0,0,0,0,0,0,1.2454,1.2454,1.2422,1.2421,1.2421,1.2401,1.2401,1.2401,1.2398,1.2398,1.2398,1.2399,1.2371,1.237,1.2369,0,0,0,0,0,0,0,0,0,0,0,0,0,1.2437,1.2454,1.2422,1.2418,1.2417,1.2401,1.2401,1.2401,1.2398,1.2398,1.2398,1.2399,1.2372,1.237,1.2369,1.2354,0,0,1.2365,1.2364,0,0,0,0,0,0,0,0,1.2438,1.2436,1.2418,1.2418,1.2417,1.2403,1.2402,1.2385,1.2398,1.2405,1.2399,1.2399,1.2381,1.2379,1.2374,1.2353,1.2352,1.2365,1.2364,1.2363,1.2363,0,0,0,0,0,0,0,1.244,1.2437,1.2413,1.2418,1.2417,1.2415,1.2413,1.2399,1.2391,1.2404,1.2404,1.2402,1.2381,1.2375,1.2373,1.2351,1.2365,1.2363,1.2363,1.2362,1.2319,1.2319,0,0,0,0,0,0,1.2442,1.2438,1.2414,1.2413,1.2429,1.2415,1.2412,1.2407,1.2391,1.2389,1.2402,1.2402,1.2378,1.2375,1.2372,1.2356,1.2363,1.2362,1.2361,1.232,1.2319,1.2319,0,0,0,0,0,0,1.2443,1.244,1.2415,1.2425,1.2422,1.2414,1.2408,1.2406,1.2401,1.239,1.2388,1.2398,1.2378,1.2374,1.236,1.2355,1.2361,1.236,1.232,1.2319,1.2319,1.2321,0,0,0,0,0,0,1.2444,1.244,1.2435,1.2425,1.2422,1.2404,1.2407,1.2406,1.24,1.24,1.2386,1.2384,1.2378,1.2362,1.2358,1.2353,1.2359,1.232,1.232,1.2319,1.2321,1.2321,1.232,0,0,0,0,0,1.2445,1.2435,1.2435,1.2432,1.2416,1.2403,1.2401,1.2396,1.2399,1.2394,1.2387,1.2384,1.2356,1.236,1.2356,1.235,1.2321,1.232,1.2319,1.2322,1.2321,1.232,0,0,0,0,0,0,1.2441,1.2433,1.2434,1.242,1.2413,1.2403,1.2396,1.2395,1.2385,1.2385,1.2378,1.2375,1.2361,1.2354,1.2359,1.2336,1.2338,1.2337,1.2341,1.2341,1.234,1.2342,1.2358,0,0,0,0,0,1.244,1.2432,1.2425,1.2413,1.241,1.2404,1.2398,1.2396,1.2387,1.2383,1.2375,1.2365,1.2354,1.2347,1.2336,1.2321,1.2318,1.2315,1.2314,1.2314,1.2312,1.2305,1.2304,1.2317,1.2317,1.2317,0,0,1.2434,1.2429,1.2424,1.2413,1.2407,1.2399,1.2401,1.2391,1.2385,1.2381,1.2368,1.2362,1.235,1.2336,1.2329,1.2329,1.2309,1.2313,1.2312,1.2311,1.2305,1.2303,1.2302,1.2316,1.2316,1.2316,0,0,1.2422,1.2417,1.2408,1.2403,1.2395,1.2392,1.239,1.2381,1.2377,1.2365,1.2362,1.2354,1.2335,1.2327,1.2321,1.2309,1.2307,1.2305,1.2302,1.2295,1.2294,1.2293,1.229,1.2289,1.2304,1.2304,1.2304,0,1.2416,1.2405,1.2403,1.2395,1.239,1.2389,1.238,1.2375,1.2362,1.2359,1.236,1.2339,1.2331,1.2316,1.2313,1.2308,1.2305,1.2307,1.2295,1.2294,1.2293,1.229,1.2289,1.2304,1.2304,1.2304,1.2304,0,1.2399,1.2391,1.2385,1.2377,1.2371,1.2362,1.2358,1.2353,1.2351,1.2348,1.2335,1.2326,1.2315,1.2311,1.2308,1.2296,1.2297,1.2297,1.2299,1.2292,1.2289,1.2288,1.2304,1.2304,1.2304,1.2304,0,0,1.2381,1.2375,1.2372,1.237,1.2363,1.2356,1.2347,1.2339,1.2335,1.2327,1.232,1.2305,1.2306,1.2299,1.2296,1.229,1.2283,1.2291,1.229,1.229,1.2271,1.2271,1.227,1.2282,1.2282,1.2281,1.2272,0,1.2368,1.2355,1.2354,1.2342,1.2336,1.2336,1.2329,1.2323,1.232,1.2313,1.2308,1.2299,1.23,1.2296,1.2291,1.2285,1.2279,1.2286,1.2274,1.2274,1.2278,1.2268,1.2268,1.226,1.2271,1.2271,1.227,0,1.235,1.2346,1.2334,1.233,1.2327,1.2321,1.2314,1.2308,1.2302,1.23,1.2294,1.2292,1.2283,1.2286,1.2273,1.2278,1.2274,1.227,1.227,1.2268,1.2272,1.2267,1.2257,1.2256,1.2268,1.2268,1.2269,0,1.234,1.2331,1.2323,1.232,1.2315,1.2311,1.2309,1.2303,1.2299,1.2292,1.229,1.2281,1.2277,1.227,1.2266,1.2269,1.2255,1.2257,1.2252,1.2253,1.2249,1.2249,1.2238,1.2245,1.2245,1.2245,1.2245,0,1.2326,1.2319,1.2319,1.2314,1.2306,1.2305,1.2297,1.2295,1.229,1.2284,1.2283,1.2278,1.2273,1.2266,1.2263,1.2254,1.2251,1.2249,1.2248,1.2249,1.225,1.2246,1.2247,1.2245,1.2245,1.2245,1.2245,0,1.2313,1.2313,1.2305,1.2302,1.2301,1.2295,1.2292,1.2288,1.2285,1.2278,1.2276,1.2272,1.2265,1.2261,1.225,1.2248,1.2239,1.2237,1.2241,1.2241,1.2237,1.2238,1.2224,1.2223,1.223,1.223,1.223,0,1.2304,1.2299,1.2297,1.2294,1.2293,1.2288,1.2284,1.2284,1.228,1.2274,1.227,1.2264,1.2258,1.2246,1.2242,1.2234,1.2233,1.2229,1.2232,1.2234,1.2234,1.2235,1.2235,1.2228,1.2228,1.2228,1.2228,0,1.2289,1.229,1.2286,1.2283,1.228,1.2277,1.2273,1.2271,1.2269,1.2265,1.226,1.2256,1.2247,1.2241,1.2234,1.223,1.2229,1.2228,1.2226,1.2227,1.223,1.223,1.2241,1.2228,1.2228,1.2228,1.2228,1.2228,1.2278,1.2274,1.2273,1.227,1.2268,1.2266,1.2262,1.2261,1.2256,1.2251,1.2251,1.2245,1.224,1.2231,1.2227,1.2222,1.2223,1.2221,1.222,1.222,1.222,1.2232,1.2221,1.2221,1.2221,1.2221,1.2221,0,1.2263,1.2263,1.226,1.2258,1.2255,1.2257,1.2254,1.2252,1.2247,1.2244,1.224,1.2234,1.2228,1.2225,1.2219,1.2215,1.2215,1.2214,1.2214,1.2214,1.2219,1.2222,1.2215,1.2215,1.2215,1.2215,1.2215,1.2215,1.2255,1.225,1.2252,1.2246,1.2245,1.2241,1.224,1.2238,1.2236,1.223,1.2227,1.2225,1.2222,1.2216,1.2212,1.2211,1.2209,1.2208,1.2207,1.2212,1.2213,1.2213,1.2216,1.2207,1.2207,1.2201,1.2201,1.2201]}]]